This demonstration page uses our WeatherBlox Daily Observations layout. Learn more.

Left ArrowRight Arrow

39.51506, -84.39828

Hourly Observations for October 30, 2015

Temp ( °F °C ) Dew Point ( °F °C ) Humidity (%) Winds ( mph kmh ) Pressure ( in mb ) Visibility ( mi km ) Precip ( " mm )
12:15 am 00:15 Cloudy 47 8.2 35 1.6 63 63 W 5 7 30.00 1016 10 16 N/A
12:35 am 00:35 Cloudy 47 8.2 35 1.7 64 64 W 6 9 30.00 1016 10 16 N/A
12:55 am 00:55 Cloudy 47 8.2 36 2.2 66 66 W 5 7 30.03 1017 10 16 N/A
1:20 am 01:20 Cloudy 47 8.2 36 2 65 65 W 6 9 30.03 1017 10 16 N/A
1:35 am 01:35 Cloudy 47 8.2 36 2.1 66 66 W 6 9 30.03 1017 10 16 N/A
1:55 am 01:55 Cloudy 47 8.2 37 2.5 68 68 W 6 9 30.03 1017 10 16 N/A
2:15 am 02:15 Cloudy 47 8.2 37 2.7 69 69 W 6 9 30.03 1017 10 16 N/A
2:35 am 02:35 Cloudy 47 8.2 37 2.8 69 69 W 7 11 30.03 1017 10 16 N/A
2:55 am 02:55 Cloudy 47 8.2 38 3.1 71 71 W 5 7 30.03 1017 10 16 N/A
3:15 am 03:15 Cloudy 47 8.2 38 3.1 71 71 W 5 7 30.03 1017 10 16 N/A
3:35 am 03:35 Cloudy 47 8.2 38 3.4 72 72 W 5 7 30.03 1017 10 16 N/A
3:55 am 03:55 Cloudy 47 8.2 38 3.4 72 72 W 5 7 30.03 1017 10 16 N/A
4:15 am 04:15 Cloudy 47 8.2 38 3.5 73 73 W 5 7 30.03 1017 10 16 N/A
4:35 am 04:35 Cloudy 47 8.2 38 3.4 72 72 W 3 6 30.06 1018 10 16 N/A
4:55 am 04:55 Cloudy 47 8.2 38 3.5 73 73 W 5 7 30.06 1018 10 16 N/A
5:15 am 05:15 Cloudy 47 8.2 38 3.6 73 73 W 3 6 30.06 1018 10 16 N/A
5:35 am 05:35 Cloudy 47 8.2 39 3.8 74 74 W 3 6 30.06 1018 10 16 N/A
5:55 am 05:55 Cloudy 47 8.2 39 3.8 74 74 N N/A 30.09 1019 10 16 N/A
6:15 am 06:15 Cloudy 47 8.2 39 4 75 75 W 3 6 30.09 1019 10 16 N/A
6:35 am 06:35 Cloudy 47 8.2 39 4 75 75 W 6 9 30.09 1019 10 16 N/A
6:55 am 06:55 Cloudy 47 8.2 39 4 75 75 W 6 9 30.09 1019 10 16 N/A
7:15 am 07:15 Cloudy 47 8.2 39 4.1 76 76 WNW 3 6 30.12 1020 10 16 N/A
7:35 am 07:35 Cloudy 47 8.2 40 4.3 77 77 N N/A 30.12 1020 10 16 N/A
7:55 am 07:55 Cloudy 47 8.2 40 4.2 76 76 N N/A 30.12 1020 10 16 N/A
8:15 am 08:15 Cloudy 47 8.3 40 4.3 76 76 N N/A 30.12 1020 10 16 N/A
8:35 am 08:35 Cloudy 47 8.3 40 4.5 77 77 WSW 3 6 30.12 1020 10 16 N/A
8:55 am 08:55 Cloudy 48 9.1 42 5.5 78 78 N N/A 30.15 1021 10 16 N/A
9:15 am 09:15 Cloudy 49 9.6 42 5.8 77 77 N N/A 30.15 1021 10 16 N/A
9:35 am 09:35 Cloudy 49 9.6 42 5.7 77 77 N N/A 30.15 1021 10 16 N/A
9:55 am 09:55 Cloudy 49 9.6 42 5.6 76 76 N N/A 30.18 1022 10 16 N/A
10:15 am 10:15 Cloudy 49 9.6 42 5.7 77 77 N N/A 30.18 1022 10 16 N/A
10:35 am 10:35 Cloudy 49 9.6 42 5.6 76 76 N N/A 30.18 1022 10 16 N/A
10:55 am 10:55 Cloudy 49 9.6 42 5.5 76 76 N N/A 30.18 1022 10 16 N/A
11:15 am 11:15 Cloudy 49 9.6 42 5.3 75 75 N N/A 30.18 1022 10 16 N/A
11:35 am 11:35 Cloudy 49 9.6 42 5.3 75 75 N N/A 30.18 1022 10 16 N/A
11:55 am 11:55 Cloudy 49 9.6 41 4.9 73 73 E 3 6 30.18 1022 10 16 N/A
12:15 pm 12:15 Cloudy 49 9.6 40 4.7 72 72 N N/A 30.18 1022 10 16 N/A
12:35 pm 12:35 Cloudy 49 9.6 40 4.6 71 71 N N/A 30.18 1022 10 16 N/A
12:55 pm 12:55 Cloudy 49 9.6 39 4 68 68 N N/A 30.21 1023 10 16 N/A
1:15 pm 13:15 Cloudy 49 9.7 39 4 68 68 N N/A 30.21 1023 10 16 N/A
1:35 pm 13:35 Cloudy 51 10.3 39 4.1 66 66 SW 5 7 30.21 1023 10 16 N/A
1:55 pm 13:55 Cloudy 51 10.3 40 4.2 66 66 S 5 7 30.18 1022 10 16 N/A
2:15 pm 14:15 Cloudy 51 10.3 39 4 65 65 N N/A 30.18 1022 10 16 N/A
2:35 pm 14:35 Cloudy 50 10.2 39 3.7 64 64 N N/A 30.18 1022 10 16 N/A
2:55 pm 14:55 Cloudy 51 10.3 38 3.6 63 63 N N/A 30.15 1021 10 16 N/A
3:15 pm 15:15 Cloudy 52 11 39 3.7 61 61 N N/A 30.15 1021 10 16 N/A
3:35 pm 15:35 Cloudy 52 11 38 3.5 60 60 N N/A 30.15 1021 10 16 N/A
3:55 pm 15:55 Cloudy 52 11 38 3.5 60 60 N N/A 30.15 1021 10 16 N/A
4:15 pm 16:15 Cloudy 52 11 37 2.9 58 58 N N/A 30.18 1022 10 16 N/A
4:35 pm 16:35 Cloudy 52 11 37 2.9 58 58 SW 3 6 30.18 1022 10 16 N/A
4:55 pm 16:55 Cloudy 52 11 37 3 58 58 SSW 3 6 30.18 1022 10 16 N/A
5:15 pm 17:15 Cloudy 52 11 37 3 58 58 N N/A 30.18 1022 10 16 N/A
5:35 pm 17:35 Cloudy 52 11 38 3.2 59 59 N N/A 30.18 1022 10 16 N/A
5:55 pm 17:55 Cloudy 52 11 38 3.5 60 60 N N/A 30.18 1022 10 16 N/A
6:15 pm 18:15 Cloudy 51 10.3 39 3.9 65 65 N N/A 30.18 1022 10 16 N/A
6:35 pm 18:35 Cloudy 51 10.3 38 3.3 62 62 E 3 6 30.15 1021 10 16 N/A
6:55 pm 18:55 Cloudy 51 10.3 38 3.2 62 62 E 3 6 30.15 1021 10 16 N/A
7:15 pm 19:15 Cloudy 50 10.2 38 3.3 63 63 N N/A 30.15 1021 10 16 N/A
7:35 pm 19:35 Cloudy 49 9.7 38 3.3 65 65 ESE 3 6 30.15 1021 10 16 N/A
7:55 pm 19:55 Cloudy 50 9.8 38 3.1 63 63 E 3 6 30.15 1021 10 16 N/A
8:15 pm 20:15 Cloudy 49 9.6 37 2.7 62 62 ESE 5 7 30.15 1021 10 16 N/A
8:35 pm 20:35 Cloudy 49 9.7 36 2.4 61 61 ESE 6 9 30.15 1021 10 16 N/A
8:55 pm 20:55 Cloudy 49 9.7 36 2.1 59 59 E 5 7 30.15 1021 10 16 N/A
9:15 pm 21:15 Cloudy 49 9.6 36 2.4 61 61 E 5 7 30.15 1021 10 16 N/A
9:35 pm 21:35 Cloudy 49 9.6 36 2.2 60 60 SE 5 7 30.12 1020 10 16 N/A
9:55 pm 21:55 Cloudy 49 9.6 36 2.1 60 60 N N/A 30.15 1021 10 16 N/A
10:15 pm 22:15 Cloudy 49 9.6 36 2.4 61 61 SE 5 7 30.15 1021 10 16 N/A
10:35 pm 22:35 Cloudy 49 9.6 37 2.5 62 62 SE 3 6 30.15 1021 10 16 N/A
10:55 pm 22:55 Cloudy 49 9.6 37 2.6 62 62 SE 3 6 30.18 1022 10 16 N/A
11:15 pm 23:15 Cloudy 49 9.6 37 2.6 62 62 N N/A 30.18 1022 10 16 N/A
11:35 pm 23:35 Cloudy 49 9.6 37 2.8 63 63 SE 5 7 30.18 1022 10 16 N/A
11:55 pm 23:55 Cloudy 49 9.6 37 2.6 62 62 SSE 5 7 30.18 1022 10 16 N/A

Powered by AerisWeather